Hourly Data Report for September 26, 2018

ASHCROFT
BRITISH COLUMBIA
Current Station Operator: ECCC - MSC

50°42'30.005" N
121°16'53.001" W
327.00 m
1160515
71681
VAS

Download Data

Hourly Data (September 2018)
Hourly Data Report for September 26, 2018
TIME
LST
Temp Definition
°C
Dew Point Definition
°C
Rel Hum Definition
%
Precip. Amount Definition
mm

Wind Dir Definition
10's deg

Wind Spd Definition
km/h
Visibility Definition
km
Stn Press Definition
kPa
Hmdx Definition


Wind Chill Definition


Weather Definition


00:00 9.6 6.6 82 0.0 0 1   98.59     LegendNANA
01:00 9.0 6.2 83 0.0 0 1   98.62     LegendNANA
02:00 8.4 6.0 85 0.0 0 1   98.60     LegendNANA
03:00 7.6 5.8 88 0.0 0 1   98.59     LegendNANA
04:00 7.4 5.7 89 0.0 0 1   98.60     LegendNANA
05:00 6.7 5.1 90 0.0 17 1   98.64     LegendNANA
06:00 6.4 5.1 92 0.0   0   98.66     LegendNANA
07:00 6.4 5.2 92 0.0 20 1   98.64     LegendNANA
08:00 7.4 5.9 90 0.0   0   98.64     LegendNANA
09:00 9.9 5.6 75 0.0 31 3   98.63     LegendNANA
10:00 12.0 6.2 68 0.0 35 3   98.62     LegendNANA
11:00 13.8 6.1 60 0.0 30 3   98.55     LegendNANA
12:00 15.9 6.4 53 0.0 30 2   98.46     LegendNANA
13:00 17.2 6.9 51 0.0 34 4   98.40     LegendNANA
14:00 18.9 6.8 45 0.0 34 5   98.31     LegendNANA
15:00 20.0 7.6 45 0.0 34 7   98.26     LegendNANA
16:00 20.3 7.5 43 0.0 34 9   98.21     LegendNANA
17:00 19.5 7.6 46 0.0 1 4   98.15     LegendNANA
18:00 16.8 7.7 55 0.0 6 2   98.18     LegendNANA
19:00 15.9 7.8 58 0.0 1 2   98.23     LegendNANA
20:00 15.8 8.2 61 0.0 17 2   98.21     LegendNANA
21:00 13.7 7.7 67 0.0 0 1   98.22     LegendNANA
22:00 12.9 8.3 74 0.0 18 3   98.27     LegendNANA
23:00 13.0 8.9 76 0.0 20 3   98.28     LegendNANA

Notes on Data Quality.

Legend

  • E = Estimated
  • M = Missing
  • NA = Not Available*
  • [empty] = Indicates an unobserved value
Date modified: